Miscellaneous Local Product
Issued by NWS Hastings, NE

Home | Current Version | Previous Version | Text Only | Print | Product List | Glossary On
Versions: 1 2 3 4 5 6 7 8 9 10 11 12 13 14 15 16 17 18 19 20 21 22 23 24 25 26 27 28 29 30 31 32 33 34 35 36 37 38 39 40 41 42 43 44 45 46 47 48 49 50
150
AXUS43 KGID 170002
MISGRI

GID CWA HOURLY WEATHER ROUNDUP
NATIONAL WEATHER SERVICE HASTINGS NE
600 PM CST SAT DEC 16 2017

NOTE: "FAIR" INDICATES FEW OR NO CLOUDS BELOW 12,000 FEET WITH NO
SIGNIFICANT WEATHER AND/OR OBSTRUCTIONS TO VISIBILITY.

...SOUTH CENTRAL NEBRASKA...

CITY           SKY/WX    TMP DP  RH WIND       PRES   REMARKS
GRAND ISLAND   CLEAR     39  31  72 N13       29.90R WCI  31
KEARNEY        CLEAR     38  29  70 NE9       29.90R WCI  31
HASTINGS       CLEAR     37  28  70 NE7       29.89R WCI  32
ORD            CLOUDY    36  30  79 N7        29.92R WCI  30
YORK           CLEAR     41  30  65 NE12      29.89R
AURORA         CLEAR     38  28  68 N10       29.89R WCI  31
LEXINGTON      CLOUDY    38  28  67 NE8       29.89R WCI  32
HOLDREGE       CLEAR     40  30  67 NE12      29.87R WCI  33
HEBRON         CLEAR     40  23  49 CALM      29.89R

...NEBRASKA PANHANDLE...

CITY           SKY/WX    TMP DP  RH WIND       PRES   REMARKS
CHADRON        CLOUDY    33  26  75 NE8       29.97R WCI  26
ALLIANCE       CLOUDY    34  29  82 NE10      29.93R WCI  26
SCOTTSBLUFF    CLOUDY    36  29  75 NE12      29.94R WCI  28
SIDNEY         CLOUDY    35  28  75 NE12      29.90R WCI  27

...WESTERN AND NORTH CENTRAL NEBRASKA...

CITY           SKY/WX    TMP DP  RH WIND       PRES   REMARKS
VALENTINE      CLOUDY    39  31  72 N6        29.97R WCI  35
AINSWORTH      CLOUDY    37  33  85 NE7       29.96R WCI  32
ONEILL         CLOUDY    39  35  84 N6        29.96R WCI  35
BROKEN BOW     CLOUDY    38  30  73 N9        29.91R WCI  31
IMPERIAL       CLOUDY    37  28  70 NE13      29.87R WCI  29
NORTH PLATTE   CLOUDY    36  29  75 NE5       29.90R WCI  32
MCCOOK         CLEAR     41  29  62 NE17      29.84R

...EASTERN NEBRASKA...

CITY           SKY/WX    TMP DP  RH WIND       PRES   REMARKS
NORFOLK        PTCLDY    38  32  79 N10       29.93R WCI  31
SO SIOUX CITY  CLOUDY    38  30  73 N8        29.95R WCI  32
TEKAMAH        CLEAR     40  26  57 N10       29.93R WCI  33
COLUMBUS       CLOUDY    40  29  64 N9        29.92R WCI  34
ALBION         CLOUDY    38  32  78 N7        29.93R WCI  33
OMAHA EPPLEY   CLOUDY    40  24  53 N12       29.90R WCI  33
OFFUTT AFB     CLEAR     44  26  48 NE5       29.89R
MILLARD        CLEAR     49  29  47 N3        29.89S
LINCOLN        CLEAR     38  24  57 NE5       29.92R WCI  34
NEBRASKA CITY  CLEAR     45  25  45 CALM      29.90R
BEATRICE       CLEAR     44  24  46 NE3       29.90R
FALLS CITY     CLEAR     47  25  42 CALM      29.90R

...NORTHERN KANSAS...

CITY           SKY/WX    TMP DP  RH WIND       PRES   REMARKS
GOODLAND       CLEAR     41  18  39 NE13      29.78R
HILL CITY      CLEAR     42  19  39 NE12      29.81R
NORTON         CLEAR     39  12  33 NE9       29.82S WCI  33
PHILLIPSBURG   CLEAR     43  19  39 NE8       29.83S
SMITH CENTER   CLEAR     43  21  42 NE10      29.84R
HAYS           CLEAR     44  20  38 SE6       29.78R
RUSSELL        CLEAR     43  24  47 SE12      29.79R
CONCORDIA      CLEAR     45  25  45 E3        29.84R
SALINA         CLOUDY    46  25  43 SE8       29.85R
TOPEKA         CLOUDY    51  27  39 S7        29.91R



USA.gov is the U.S. government's official web portal to all federal, state and local government web resources and services.